Location: Handeloh
(53.2500°N, 9.8330°E)
Time: 08:21:33
(UTC+01:00)

S-56A Canister/Altair - Pass Details

Date: 25 November 2019
Orbit: 633 x 2500 km, 38.9° (Epoch: 08 December)

Event Time Altitude Azimuth Distance (km) Brightness Sun altitude
Rises 15:06:45 0° 221° (SW) 5,922 14.9 6.5°
Reaches altitude 10° 15:11:42 10° 211° (SSW) 4,693 13.7 6.0°
Maximum altitude 15:21:16 27° 162° (SSE) 2,969 10.9 5.0°
Drops below altitude 10° 15:28:33 10° 110° (ESE) 3,508 10.7 4.2°
Sets 15:31:37 0° 98° (E) 4,215 10.9 3.9°
